Weather in Arona

Spain     28°06′00″N   16°40′57″W
temp.,
°C
wind,
m/s
gust,
m/s
humid.,
%
clouds,
%
prec.,
mm/h
press.,
hPa
HPBL,
m
23 october, sat
sat2301:00+22w22658 0.1 1019646
04:00+21se226857 0.0 1017427
07:00+21wsw127024 0.1 1017549
10:00+21s227163 0.1 1018648
13:00+22ese326787 0.2 1019850
16:00+22ese436584 0.0 1018978
19:00+22sse1267100 0.0 1018899
22:00+22se2266100 0.0 1019778
24 october, sun
sun2401:00+22e436480 0.1 1019548
04:00+21w126592 0.0 1018968
07:00+21ese2266100 0.1 1019871
10:00+21e2363100 0.0 1020797
13:00+22ese2363100 0.0 1020864
16:00+22ese436690 0.0 1018727
19:00+22ese546754 0.1 1018827
22:00+22nw226725 0.0 1020606
25 october, mon
mon2501:00+21sse116769 0.1 1020502
04:00+21ese116615 0.0 1018679
07:00+21s216639 0.1 1018884
10:00+21s226616 0.0 1019736
13:00+21ssw137238 0.0 1020606
16:00+21s237025 0.0 1018550
19:00+22sse236733 0.0 1018579
22:00+22w22698 0.0 1019532
26 october, tue
tue2601:00+22se34701 0.0 1018616
04:00+22n126815 0.0 1018588
07:00+21ese23705 0.0 1017537
10:00+22ene246511 0.0 1019697
13:00+22ese126432 0.0 1019779
16:00+22ese236348 0.0 1017608
19:00+22ene34668 0.0 1017478
22:00+22ese12662 0.0 1018552
27 october, wed
wed2701:00+21ene22654 0.0 1018668
04:00+21ese226733 0.0 1017637
07:00+21e3267100 0.0 1017708
10:00+21e336473 0.0 1018809
13:00+22ese336262 0.0 1018877
16:00+22ese226246 0.0 1017859
19:00+22ne1264100 0.0 1017876
22:00+22se336648 0.0 1018792